Wind_Speed
93 94 93 93 90 87 85 84 85 88 86 81 80 77 73 71 70 70 67 65 60 60 57 57 55 55 52 53 52 54 51 47 45 47 46 44 46 46
96 94 93 93 94 90 88 85 83 83 88 85 83 80 76 73 70 68 68 64 65 64 60 54 54 54 53 55 57 60 54 51 48 49 48 47 51 50
98 96 94 94 92 88 86 85 82 77 78 75 74 70 69 67 64 63 62 63 63 61 62 60 57 54 54 50 55 57 56 51 50 49 51 55 53 52
92 85 80 77 76 75 75 74 74 74 76 77 72 69 64 62 59 59 56 57 57 57 61 59 58 57 54 50 55 55 53 49 49 48 49 52 54 53
76 72 69 68 67 67 68 69 69 69 70 73 69 63 64 60 58 56 54 54 52 52 56 58 59 57 53 53 55 55 54 55 50 48 51 57 55 56
68 66 66 67 68 69 69 70 70 70 70 71 70 64 63 59 61 58 56 56 54 56 57 60 63 60 61 62 58 48 53 50 53 57 49 52 60 67
67 68 70 72 76 78 78 76 78 78 76 74 71 67 62 59 59 57 57 54 53 54 56 58 61 64 63 55 55 56 59 57 57 49 49 54 54 64
76 78 79 80 81 82 82 83 83 85 82 79 76 72 66 63 60 59 60 58 54 55 57 54 58 57 64 62 46 47 52 52 50 54 51 51 50 59
84 85 85 87 89 89 87 85 83 82 81 80 80 75 71 67 65 63 63 62 58 56 57 51 51 53 56 55 48 43 48 51 54 60 50 53 53 52
93 92 92 91 90 88 81 77 74 72 69 68 71 70 67 64 63 63 61 60 55 53 54 51 50 47 51 53 60 39 42 48 51 53 52 49 54 55
95 91 88 85 84 83 77 71 66 61 57 57 56 56 55 52 51 56 58 59 55 51 52 52 48 44 46 47 43 39 42 43 41 49 54 54 52 50
89 82 77 74 71 69 66 62 57 51 47 43 44 45 44 42 42 47 49 51 49 46 45 42 40 40 42 42 45 47 43 40 39 44 40 41 43 44
70 63 57 54 53 52 51 50 48 44 36 32 30 31 34 35 36 40 43 42 33 28 25 28 29 33 37 32 33 34 39 38 38 35 36 36 41 39
49 43 41 41 42 42 40 40 38 34 26 21 18 20 23 27 30 31 29 25 21 21 22 24 26 27 32 31 31 34 36 33 36 34 34 37 39 41
43 41 40 40 38 35 33 32 29 23 18 14 12 13 19 20 23 24 18 9 17 18 23 21 23 28 29 32 33 32 34 39 38 34 37 40 43 46
37 34 35 35 34 30 25 24 18 13 9 9 12 15 18 19 16 12 13 14 18 22 23 20 24 26 26 26 28 32 34 27 29 32 35 40 43 45
33 31 32 30 29 25 19 11 8 7 10 12 13 15 16 14 12 10 12 13 18 17 22 23 25 25 25 23 21 20 22 24 29 34 38 41 43 44
32 31 28 26 23 16 6 5 3 8 13 17 12 11 14 9 3 9 13 8 10 14 16 20 20 20 20 19 20 23 26 30 35 39 41 43 42 37
29 27 23 21 14 4 4 1 7 15 19 16 12 11 8 5 9 8 8 8 11 14 17 17 17 18 18 19 22 26 30 33 37 38 37 34 32 33
27 23 20 15 3 5 2 4 12 18 16 4 6 11 11 6 6 2 10 14 17 13 11 12 15 17 19 22 26 29 31 32 32 31 33 37 40 43
22 19 16 4 6 2 2 9 15 7 6 9 7 6 6 6 5 6 12 19 15 12 11 13 17 19 22 24 26 25 26 29 35 38 41 44 44 44
15 14 7 6 5 3 5 13 7 7 11 8 9 11 9 8 11 13 12 10 10 12 16 17 17 18 18 20 24 27 32 35 38 40 41 39 32 21
10 8 7 8 5 1 11 10 7 13 12 16 18 17 16 13 9 6 7 9 10 9 10 10 13 18 22 26 30 33 35 34 31 30 26 20 16 15
Wind_Direction
296 295 293 292 290 287 285 284 284 284 283 281 279 278 277 274 272 271 272 271 270 270 274 274 273 272 269 261 262 270 263 259 259 262 264 264 264 272
296 294 292 290 289 287 285 284 283 283 282 282 280 277 274 273 271 270 269 267 266 265 265 266 267 268 268 264 262 261 261 258 258 259 262 260 261 272
293 291 290 289 288 289 287 286 284 283 281 281 282 280 277 274 273 271 268 266 265 262 261 260 259 261 260 264 256 256 260 257 256 258 256 254 264 269
295 295 293 291 289 287 286 285 283 282 282 282 279 278 277 276 277 272 270 267 265 263 262 262 258 257 259 262 259 258 253 254 256 257 255 261 263 265
299 297 296 294 291 288 285 283 281 280 280 281 280 280 278 275 271 268 267 264 262 258 258 257 256 254 256 252 262 254 256 256 261 262 259 260 261 261
299 298 296 294 293 291 290 288 287 284 280 278 278 278 277 274 271 267 263 261 259 258 255 255 256 254 252 247 253 251 260 251 247 249 267 257 257 257
297 296 296 295 293 292 291 289 286 283 281 280 279 278 276 272 269 269 268 264 261 260 258 255 255 255 256 258 244 246 249 253 254 253 257 256 255 255
295 295 294 293 293 291 289 287 285 284 281 280 277 275 274 272 269 267 266 265 262 261 259 255 258 256 254 254 256 255 250 246 243 246 256 253 254 253
294 294 294 293 292 291 288 287 285 284 282 279 275 272 272 270 269 266 265 266 266 261 260 257 255 256 253 254 252 250 255 234 241 249 256 255 256 254
295 295 294 294 294 293 291 289 287 285 283 278 275 274 270 269 267 267 266 266 265 263 261 258 256 254 254 252 245 256 253 246 250 247 246 262 259 257
296 296 295 294 294 293 293 292 289 287 282 279 276 273 271 269 267 266 267 268 269 265 261 258 257 251 246 248 249 249 257 246 249 243 251 257 252 252
296 296 295 294 292 292 292 292 290 287 283 277 274 272 270 268 263 263 267 269 269 262 257 255 249 245 239 244 243 256 254 254 255 254 249 248 248 247
300 298 295 292 290 291 293 293 291 289 286 279 270 265 264 264 263 265 272 275 271 256 244 242 242 238 231 246 244 254 256 248 246 241 246 245 244 253
311 305 299 295 294 297 297 295 292 291 287 273 266 262 261 262 265 262 261 262 267 248 235 246 238 237 241 252 251 253 250 245 235 238 244 246 249 260
312 308 304 302 304 305 300 294 292 286 281 283 277 260 260 248 246 246 247 261 269 260 262 260 246 240 253 259 254 245 249 247 230 239 243 248 253 260
312 309 306 306 306 305 302 294 286 282 287 280 267 259 256 257 241 224 238 268 253 263 255 246 252 257 251 252 243 244 231 233 235 242 249 255 259 267
319 315 313 311 309 307 304 278 266 286 297 294 260 256 255 229 215 259 268 277 264 243 234 245 241 234 230 229 222 221 225 238 248 255 263 268 270 272
321 317 315 313 311 302 260 230 290 309 307 309 285 257 198 198 192 238 265 262 221 215 218 210 201 200 206 217 225 239 251 256 262 267 270 271 271 273
320 318 317 315 305 238 195 269 308 299 297 300 262 210 157 163 232 247 220 237 198 185 182 190 204 218 232 245 258 265 266 267 269 270 273 276 277 278
323 320 321 315 224 184 220 319 300 305 301 216 167 163 192 250 214 210 203 206 204 192 200 220 230 239 249 262 269 271 274 277 278 279 280 281 282 282
326 318 324 260 186 203 42 315 324 312 139 141 170 189 191 167 203 218 202 198 202 218 243 255 259 264 270 275 277 278 277 280 281 283 285 284 281 277
324 314 305 190 187 139 335 340 360 115 117 135 159 159 152 146 145 154 170 188 217 243 254 266 278 280 282 284 286 287 290 290 290 287 285 282 279 271
312 311 195 182 163 48 343 8 98 125 106 126 121 119 125 137 152 184 216 235 254 282 288 287 296 297 297 301 302 301 297 294 287 287 283 266 260 252
Height
5588 5581 5572 5565 5558 5552 5546 5539 5530 5526 5535 5539 5533 5534 5532 5531 5530 5529 5525 5524 5524 5523 5521 5520 5519 5519 5520 5521 5522 5521 5523 5522 5520 5521 5522 5523 5525 5525
5564 5557 5548 5540 5534 5527 5520 5513 5507 5498 5491 5508 5507 5506 5504 5502 5503 5502 5503 5502 5502 5500 5501 5501 5501 5501 5502 5503 5503 5503 5504 5505 5505 5505 5507 5509 5511 5511
5539 5529 5522 5514 5510 5503 5496 5491 5485 5477 5466 5481 5477 5480 5480 5479 5480 5478 5479 5478 5478 5479 5479 5479 5481 5482 5483 5484 5484 5485 5487 5489 5491 5491 5492 5495 5496 5496
5513 5504 5497 5490 5484 5478 5472 5469 5462 5459 5449 5445 5459 5456 5456 5457 5458 5456 5456 5457 5457 5460 5459 5459 5460 5462 5464 5466 5465 5467 5469 5472 5475 5476 5477 5481 5480 5481
5488 5481 5475 5467 5462 5456 5450 5446 5441 5437 5430 5420 5425 5433 5433 5434 5430 5432 5434 5434 5436 5438 5438 5440 5441 5442 5444 5445 5443 5449 5452 5455 5459 5460 5461 5464 5464 5465
5468 5461 5455 5448 5441 5436 5430 5426 5421 5415 5411 5404 5403 5408 5410 5415 5408 5407 5409 5412 5416 5416 5419 5419 5420 5422 5424 5425 5426 5430 5434 5437 5441 5443 5445 5448 5450 5452
5452 5445 5439 5430 5421 5414 5408 5406 5396 5389 5387 5384 5384 5384 5390 5389 5386 5387 5387 5392 5397 5398 5398 5401 5400 5403 5405 5406 5407 5412 5416 5421 5422 5426 5431 5432 5433 5436
5432 5426 5418 5408 5399 5392 5384 5376 5370 5359 5360 5358 5359 5360 5366 5364 5366 5366 5367 5369 5376 5378 5376 5382 5380 5384 5388 5389 5390 5394 5397 5401 5405 5410 5413 5416 5418 5420
5406 5399 5393 5383 5372 5363 5359 5351 5345 5335 5328 5327 5329 5334 5338 5341 5341 5345 5345 5346 5352 5358 5355 5361 5362 5366 5367 5371 5375 5377 5381 5383 5389 5392 5397 5399 5402 5404
5378 5369 5362 5353 5341 5331 5328 5324 5317 5311 5306 5302 5300 5305 5310 5315 5315 5318 5322 5324 5331 5335 5334 5338 5342 5348 5351 5353 5356 5363 5365 5369 5372 5375 5381 5384 5387 5390
5347 5340 5332 5324 5314 5305 5300 5296 5291 5289 5285 5281 5282 5283 5286 5291 5294 5293 5298 5299 5308 5314 5315 5317 5324 5328 5333 5338 5343 5347 5350 5355 5358 5360 5365 5368 5371 5373
5318 5312 5305 5297 5290 5283 5276 5271 5268 5267 5266 5267 5266 5266 5269 5273 5275 5275 5278 5280 5285 5290 5296 5300 5306 5311 5317 5324 5328 5333 5337 5340 5342 5346 5349 5354 5357 5361
5290 5287 5282 5276 5270 5265 5259 5254 5250 5249 5252 5252 5254 5255 5256 5259 5262 5263 5264 5265 5269 5273 5282 5287 5294 5299 5305 5312 5315 5320 5323 5325 5329 5333 5337 5341 5345 5350
5272 5268 5263 5259 5255 5252 5248 5243 5240 5239 5240 5242 5245 5247 5249 5251 5252 5253 5254 5256 5260 5266 5272 5278 5282 5290 5295 5299 5304 5307 5311 5313 5317 5322 5326 5330 5334 5336
5262 5257 5252 5247 5244 5242 5238 5234 5233 5233 5234 5236 5238 5240 5241 5242 5244 5245 5249 5252 5257 5260 5264 5269 5274 5279 5284 5289 5292 5295 5299 5304 5307 5312 5316 5319 5321 5323
5258 5252 5245 5240 5236 5233 5231 5228 5227 5228 5230 5231 5233 5234 5235 5237 5240 5243 5247 5249 5252 5255 5258 5262 5266 5270 5275 5279 5282 5286 5290 5295 5298 5302 5305 5307 5308 5308
5251 5245 5240 5235 5231 5227 5225 5224 5225 5227 5228 5228 5229 5229 5231 5234 5237 5240 5243 5245 5246 5248 5252 5256 5259 5264 5269 5273 5276 5280 5283 5287 5290 5292 5293 5293 5292 5291
5246 5240 5235 5230 5226 5223 5222 5224 5225 5226 5225 5225 5226 5227 5229 5232 5235 5238 5240 5242 5243 5246 5249 5253 5257 5261 5265 5269 5272 5275 5277 5278 5279 5279 5278 5278 5277 5278
5241 5236 5231 5226 5223 5222 5223 5224 5226 5225 5223 5222 5224 5225 5228 5232 5234 5236 5238 5241 5244 5246 5249 5252 5256 5259 5262 5265 5266 5267 5267 5266 5266 5265 5264 5263 5264 5266
5237 5232 5228 5224 5223 5223 5224 5226 5226 5224 5221 5221 5224 5227 5230 5231 5233 5234 5237 5241 5244 5247 5249 5251 5253 5255 5256 5256 5256 5255 5254 5252 5252 5252 5252 5251 5250 5250
5234 5230 5226 5224 5225 5226 5227 5227 5225 5221 5221 5223 5225 5227 5229 5232 5234 5235 5238 5241 5244 5246 5247 5248 5248 5248 5247 5246 5244 5243 5242 5242 5241 5239 5238 5235 5232 5229
5231 5228 5226 5226 5228 5228 5229 5227 5223 5222 5223 5225 5226 5229 5232 5233 5236 5239 5241 5242 5243 5243 5242 5241 5240 5239 5238 5238 5237 5235 5232 5227 5224 5222 5220 5218 5216 5215
5229 5227 5227 5229 5230 5231 5230 5226 5225 5226 5227 5228 5231 5233 5236 5240 5241 5242 5242 5242 5240 5239 5238 5237 5235 5233 5231 5228 5224 5221 5216 5212 5208 5206 5204 5204 5205 5207